Location: ??????
(55.7522°N, 37.6156°E)
Time: 11:42:06
(UTC+00:00)

USA 229 DEB - Pass Details

Date: 18 December 2025
Orbit: 844 x 1364 km, 63.4° (Epoch: 10 January)

Event Time Altitude Azimuth Distance (km) Brightness Sun altitude
Exits shadow 01:13:48 60° 63° (ENE) 1,359 4.3 -37.6°
Drops below altitude 10° 01:20:45 10° 109° (ESE) 3,286 6.8 -36.6°
Sets 01:23:45 0° 113° (ESE) 4,306 7.5 -36.2°
